EN

Hourly Weather Bolshie Ermaki

Today, 21 October, Wednesday

Time Temperature Precipitation Wind Pressure Humidity
00:00 -1°C° 0 mm 2 mps 747 mmHg 90%
01:00 -2°C° 0 mm 2 mps 747 mmHg 90%
02:00 -2°C° 0 mm 2 mps 747 mmHg 91%
03:00 -2°C° 0 mm 2 mps 747 mmHg 89%
04:00 -1°C° 0 mm 2 mps 747 mmHg 87%
05:00 -1°C° 0 mm 2 mps 747 mmHg 86%
06:00 -1°C° 0 mm 2 mps 747 mmHg 84%
07:00 +1°C° 0 mm 2 mps 747 mmHg 83%
08:00 +2°C° 0 mm 2 mps 747 mmHg 81%
09:00 +1°C° 0.2 mm 3 mps 746 mmHg 85%
10:00 +1°C° 0.2 mm 3 mps 746 mmHg 89%
11:00 +2°C° 0.2 mm 3 mps 746 mmHg 92%
12:00 +2°C° 0.3 mm 3 mps 745 mmHg 94%
13:00 +2°C° 0.3 mm 3 mps 745 mmHg 95%
14:00 +2°C° 0.3 mm 3 mps 745 mmHg 96%
15:00 +2°C° 0.4 mm 3 mps 744 mmHg 96%
16:00 +2°C° 0.4 mm 3 mps 744 mmHg 96%
17:00 +4°C° 0.4 mm 2 mps 743 mmHg 96%
18:00 +4°C° 0 mm 2 mps 743 mmHg 97%
19:00 +4°C° 0 mm 2 mps 743 mmHg 97%
20:00 +4°C° 0 mm 2 mps 743 mmHg 97%
21:00 +4°C° 0 mm 2 mps 743 mmHg 97%
22:00 +4°C° 0 mm 2 mps 743 mmHg 98%
23:00 +5°C° 0 mm 1 mps 743 mmHg 98%

Tomorrow, 22 October, Thursday

Time Temperature Precipitation Wind Pressure Humidity
00:00 +5°C° 0 mm 1 mps 743 mmHg 98%
01:00 +5°C° 0 mm 1 mps 743 mmHg 98%
02:00 +5°C° 0 mm 1 mps 743 mmHg 98%
03:00 +5°C° 0 mm 1 mps 743 mmHg 98%
04:00 +5°C° 0 mm 1 mps 742 mmHg 98%
05:00 +5°C° 0 mm 1 mps 742 mmHg 98%
06:00 +4°C° 0 mm 2 mps 742 mmHg 96%
07:00 +5°C° 0 mm 2 mps 742 mmHg 95%
08:00 +4°C° 0 mm 3 mps 742 mmHg 94%
09:00 +5°C° 0.1 mm 3 mps 741 mmHg 91%
10:00 +5°C° 0.1 mm 3 mps 741 mmHg 88%
11:00 +6°C° 0.1 mm 4 mps 741 mmHg 86%
12:00 +6°C° 0.5 mm 4 mps 740 mmHg 88%
13:00 +6°C° 0.5 mm 4 mps 739 mmHg 91%
14:00 +6°C° 0.5 mm 4 mps 739 mmHg 93%
15:00 +6°C° 0.1 mm 4 mps 738 mmHg 93%
16:00 +6°C° 0.1 mm 4 mps 738 mmHg 92%
17:00 +6°C° 0.1 mm 4 mps 737 mmHg 92%
18:00 +7°C° 0 mm 4 mps 737 mmHg 91%
19:00 +8°C° 0 mm 4 mps 736 mmHg 90%
20:00 +8°C° 0 mm 4 mps 736 mmHg 89%
21:00 +9°C° 0 mm 5 mps 736 mmHg 89%
22:00 +9°C° 0 mm 5 mps 736 mmHg 89%
23:00 +9°C° 0 mm 5 mps 736 mmHg 89%

Day after tomorrow, 23 October, Friday

Time Temperature Precipitation Wind Pressure Humidity
00:00 +10°C° 0 mm 5 mps 736 mmHg 88%
01:00 +10°C° 0 mm 5 mps 736 mmHg 87%
02:00 +10°C° 0 mm 5 mps 737 mmHg 86%
03:00 +9°C° 0 mm 5 mps 737 mmHg 88%
04:00 +9°C° 0 mm 5 mps 737 mmHg 90%
05:00 +8°C° 0 mm 4 mps 737 mmHg 91%
06:00 +10°C° 0 mm 4 mps 737 mmHg 91%
07:00 +10°C° 0 mm 4 mps 737 mmHg 90%
08:00 +10°C° 0 mm 4 mps 737 mmHg 89%
09:00 +11°C° 0 mm 4 mps 737 mmHg 88%
10:00 +11°C° 0 mm 4 mps 737 mmHg 86%
11:00 +11°C° 0 mm 4 mps 737 mmHg 85%
12:00 +11°C° 0 mm 4 mps 737 mmHg 86%
13:00 +12°C° 0 mm 4 mps 736 mmHg 86%
14:00 +12°C° 0 mm 4 mps 736 mmHg 87%
15:00 +12°C° 0.7 mm 5 mps 735 mmHg 88%
16:00 +11°C° 0.7 mm 6 mps 735 mmHg 89%
17:00 +11°C° 0.7 mm 6 mps 734 mmHg 90%
18:00 +11°C° 0.3 mm 6 mps 734 mmHg 89%
19:00 +12°C° 0.3 mm 5 mps 734 mmHg 88%
20:00 +12°C° 0.3 mm 5 mps 734 mmHg 88%
21:00 +12°C° 0.1 mm 5 mps 734 mmHg 87%
22:00 +10°C° 0.1 mm 5 mps 735 mmHg 87%
23:00 +10°C° 0.1 mm 5 mps 735 mmHg 87%

24 October, Saturday

Time Temperature Precipitation Wind Pressure Humidity
00:00 +10°C° 0 mm 5 mps 735 mmHg 88%
01:00 +10°C° 0 mm 4 mps 735 mmHg 90%
02:00 +8°C° 0 mm 4 mps 735 mmHg 91%
03:00 +8°C° 0 mm 4 mps 736 mmHg 90%
04:00 +8°C° 0 mm 4 mps 736 mmHg 89%
05:00 +7°C° 0 mm 4 mps 736 mmHg 88%
06:00 +7°C° 0 mm 4 mps 736 mmHg 87%
07:00 +7°C° 0 mm 4 mps 736 mmHg 85%
08:00 +7°C° 0 mm 4 mps 737 mmHg 84%
09:00 +9°C° 0 mm 3 mps 737 mmHg 82%
10:00 +9°C° 0 mm 3 mps 737 mmHg 79%
11:00 +9°C° 0 mm 3 mps 738 mmHg 77%
12:00 +9°C° 0 mm 3 mps 738 mmHg 79%
13:00 +9°C° 0 mm 3 mps 737 mmHg 80%
14:00 +9°C° 0 mm 3 mps 737 mmHg 81%
15:00 +9°C° 0 mm 2 mps 737 mmHg 84%
16:00 +10°C° 0 mm 1 mps 737 mmHg 87%
17:00 +9°C° 0 mm 1 mps 737 mmHg 90%
18:00 +9°C° 0 mm 1 mps 737 mmHg 91%
19:00 +9°C° 0 mm 1 mps 737 mmHg 91%
20:00 +8°C° 0 mm 1 mps 737 mmHg 92%
21:00 +8°C° 0 mm 1 mps 736 mmHg 92%
22:00 +8°C° 0 mm 2 mps 736 mmHg 93%
23:00 +8°C° 0 mm 2 mps 735 mmHg 93%

25 October, Sunday

Time Temperature Precipitation Wind Pressure Humidity
00:00 +8°C° 0.1 mm 2 mps 735 mmHg 93%
01:00 +8°C° 0.1 mm 3 mps 734 mmHg 92%
02:00 +8°C° 0.1 mm 3 mps 733 mmHg 92%
03:00 +8°C° 1 mm 3 mps 733 mmHg 93%
04:00 +7°C° 1 mm 4 mps 732 mmHg 93%
05:00 +7°C° 1 mm 4 mps 732 mmHg 94%
06:00 +7°C° 1.3 mm 4 mps 732 mmHg 94%
07:00 +7°C° 1.3 mm 4 mps 731 mmHg 94%
08:00 +7°C° 1.3 mm 4 mps 731 mmHg 94%
09:00 +7°C° 1.3 mm 4 mps 731 mmHg 94%
10:00 +7°C° 1.3 mm 4 mps 732 mmHg 94%
11:00 +7°C° 1.3 mm 4 mps 732 mmHg 94%
12:00 +7°C° 1.2 mm 4 mps 732 mmHg 93%
13:00 +6°C° 1.2 mm 5 mps 732 mmHg 92%
14:00 +6°C° 1.2 mm 5 mps 732 mmHg 92%
15:00 +6°C° 0.4 mm 5 mps 733 mmHg 91%
16:00 +6°C° 0.4 mm 5 mps 733 mmHg 91%
17:00 +6°C° 0.4 mm 5 mps 734 mmHg 91%
18:00 +6°C° 0.5 mm 5 mps 735 mmHg 90%
19:00 +6°C° 0.5 mm 5 mps 735 mmHg 89%
20:00 +6°C° 0.5 mm 5 mps 736 mmHg 89%
21:00 +6°C° 0 mm 5 mps 737 mmHg 88%
22:00 +6°C° 0 mm 5 mps 737 mmHg 88%
23:00 +6°C° 0 mm 5 mps 738 mmHg 88%

26 October, Monday

Time Temperature Precipitation Wind Pressure Humidity
00:00 +5°C° 0 mm 4 mps 739 mmHg 89%
01:00 +4°C° 0 mm 4 mps 739 mmHg 90%
02:00 +4°C° 0 mm 4 mps 740 mmHg 91%
03:00 +3°C° 0 mm 3 mps 741 mmHg 92%
04:00 +3°C° 0 mm 3 mps 741 mmHg 93%
05:00 +2°C° 0 mm 3 mps 742 mmHg 94%
06:00 +3°C° 0 mm 3 mps 743 mmHg 92%
07:00 +3°C° 0 mm 3 mps 743 mmHg 91%
08:00 +3°C° 0 mm 3 mps 744 mmHg 90%
09:00 +3°C° 0 mm 3 mps 744 mmHg 84%
10:00 +4°C° 0 mm 3 mps 745 mmHg 78%
11:00 +5°C° 0 mm 3 mps 745 mmHg 72%
12:00 +5°C° 0 mm 3 mps 745 mmHg 70%
13:00 +5°C° 0 mm 3 mps 745 mmHg 69%
14:00 +7°C° 0 mm 3 mps 746 mmHg 67%
15:00 +6°C° 0 mm 2 mps 746 mmHg 73%
16:00 +5°C° 0 mm 2 mps 747 mmHg 78%
17:00 +5°C° 0 mm 1 mps 747 mmHg 83%
18:00 +4°C° 0 mm 1 mps 747 mmHg 84%
19:00 +4°C° 0 mm 1 mps 748 mmHg 85%
20:00 +4°C° 0 mm 1 mps 748 mmHg 87%
21:00 +3°C° 0 mm 1 mps 749 mmHg 87%
22:00 +3°C° 0 mm 1 mps 749 mmHg 88%
23:00 +3°C° 0 mm 1 mps 749 mmHg 88%

27 October, Tuesday

Time Temperature Precipitation Wind Pressure Humidity
00:00 +2°C° 0 mm 0 mps 750 mmHg 88%
01:00 +1°C° 0 mm 0 mps 750 mmHg 89%
02:00 +1°C° 0 mm 0 mps 750 mmHg 89%
03:00 +1°C° 0 mm 0 mps 750 mmHg 89%
04:00 +1°C° 0 mm 0 mps 751 mmHg 89%
05:00 +1°C° 0 mm 0 mps 751 mmHg 89%
06:00 +1°C° 0 mm 0 mps 751 mmHg 87%
07:00 +2°C° 0 mm 0 mps 751 mmHg 86%
08:00 +2°C° 0 mm 0 mps 752 mmHg 84%
09:00 +5°C° 0 mm 1 mps 752 mmHg 80%
10:00 +6°C° 0 mm 1 mps 752 mmHg 75%
11:00 +7°C° 0 mm 1 mps 752 mmHg 70%
12:00 +7°C° 0 mm 1 mps 752 mmHg 70%
13:00 +8°C° 0 mm 1 mps 752 mmHg 69%
14:00 +8°C° 0 mm 1 mps 752 mmHg 68%
15:00 +7°C° 0 mm 1 mps 752 mmHg 74%
16:00 +6°C° 0 mm 1 mps 752 mmHg 80%
17:00 +5°C° 0 mm 1 mps 752 mmHg 85%
18:00 +4°C° 0 mm 1 mps 752 mmHg 86%
19:00 +4°C° 0 mm 1 mps 752 mmHg 87%
20:00 +2°C° 0 mm 2 mps 752 mmHg 88%
21:00 +2°C° 0 mm 2 mps 752 mmHg 87%
22:00 +2°C° 0 mm 2 mps 752 mmHg 87%
23:00 +2°C° 0 mm 2 mps 752 mmHg 87%
Show more